{"data":{"norad_id":68941,"intl_designator":"2026-098Y","name":"KUIPER-00439","alt_names":[],"object_type":"PAYLOAD","status":"ACTIVE","operator":null,"country":"US","launch_date":"2026-04-30","launch_site_code":"FRGUI","launch_vehicle":null,"mission":null,"orbit_class":"UNKNOWN","rcs_meters":null,"size_class":null,"mass_kg":null,"dimensions":null,"purposes":[],"wikipedia_slug":null,"has_3d_model":false,"image_url":null,"decayed_at":null,"tle_current":{"epoch":"2026-09-19T22:01:11.077248Z","epoch_age_seconds":69685,"freshness":"FRESH","line1":"1 68941U 26098Y   26262.91748932  .00002236  00000+0  32225-3 0  9993","line2":"2 68941  51.9038 356.7788 0000683  74.2551 285.8487 14.79919753 21540","mean_motion":14.79919753,"eccentricity":6.83e-5,"inclination_deg":51.9038,"raan_deg":356.7788,"arg_perigee_deg":74.2551,"mean_anomaly_deg":285.8487,"bstar":0.00032225,"rev_number":2154,"period_min":97.302573134856,"perigee_km":629.09882008658,"apogee_km":630.05607388004,"semimajor_km":7007.7144469833,"source":"CELESTRAK","updated_at":"2026-09-20T09:00:24.582477Z"}}}